When you browse on this site, cookies collect data to enhance your experience and personalize the content and advertising you see.
Visit our Privacy Policy to learn more. By continuing to use the site, you agree to this use of cookies and data.
  • In Sweden
  • List of Countries
  • For 7 days
  • Water Temperature
  • Satellite Maps
  • Weather Map
  • Weather Widgets
  • user-avatar
    Login

    Hourly Weather Sydney

    Today, 22 July, Monday

    Time Temperature Precipitation Wind Pressure Humidity
    00:00 +12°C° 0 mm 3 mps 761 mmHg 53%
    01:00 +12°C° 0 mm 3 mps 761 mmHg 54%
    02:00 +12°C° 0 mm 3 mps 761 mmHg 55%
    03:00 +13°C° 0 mm 2 mps 761 mmHg 57%
    04:00 +13°C° 0 mm 2 mps 761 mmHg 60%
    05:00 +11°C° 0 mm 3 mps 761 mmHg 62%
    06:00 +11°C° 0 mm 3 mps 761 mmHg 63%
    07:00 +11°C° 0 mm 3 mps 762 mmHg 64%
    08:00 +13°C° 0 mm 3 mps 762 mmHg 60%
    09:00 +16°C° 0 mm 3 mps 762 mmHg 55%
    10:00 +17°C° 0 mm 2 mps 762 mmHg 50%
    11:00 +19°C° 0 mm 2 mps 761 mmHg 46%
    12:00 +21°C° 0 mm 2 mps 760 mmHg 41%
    13:00 +24°C° 0 mm 2 mps 760 mmHg 37%
    14:00 +24°C° 0 mm 2 mps 760 mmHg 36%
    15:00 +22°C° 0 mm 3 mps 760 mmHg 36%
    16:00 +22°C° 0 mm 3 mps 759 mmHg 36%
    17:00 +21°C° 0 mm 3 mps 760 mmHg 42%
    18:00 +19°C° 0 mm 4 mps 760 mmHg 48%
    19:00 +17°C° 0 mm 4 mps 760 mmHg 54%
    20:00 +15°C° 0 mm 4 mps 760 mmHg 57%
    21:00 +14°C° 0 mm 4 mps 761 mmHg 61%
    22:00 +14°C° 0 mm 4 mps 761 mmHg 65%
    23:00 +13°C° 0 mm 4 mps 761 mmHg 68%

    Tomorrow, 23 July, Tuesday

    Time Temperature Precipitation Wind Pressure Humidity
    00:00 +13°C° 0 mm 4 mps 761 mmHg 71%
    01:00 +12°C° 0 mm 3 mps 761 mmHg 74%
    02:00 +12°C° 0 mm 4 mps 761 mmHg 75%
    03:00 +11°C° 0 mm 4 mps 761 mmHg 77%
    04:00 +11°C° 0 mm 4 mps 760 mmHg 78%
    05:00 +10°C° 0 mm 4 mps 761 mmHg 78%
    06:00 +10°C° 0 mm 4 mps 761 mmHg 79%
    07:00 +8°C° 0 mm 4 mps 761 mmHg 79%
    08:00 +11°C° 0 mm 4 mps 762 mmHg 66%
    09:00 +14°C° 0 mm 4 mps 762 mmHg 53%
    10:00 +17°C° 0 mm 4 mps 762 mmHg 40%
    11:00 +19°C° 0 mm 4 mps 761 mmHg 34%
    12:00 +21°C° 0 mm 4 mps 760 mmHg 28%
    13:00 +23°C° 0 mm 4 mps 760 mmHg 21%
    14:00 +23°C° 0 mm 5 mps 760 mmHg 23%
    15:00 +22°C° 0 mm 5 mps 760 mmHg 24%
    16:00 +22°C° 0 mm 6 mps 760 mmHg 26%
    17:00 +20°C° 0 mm 5 mps 760 mmHg 30%
    18:00 +17°C° 0 mm 5 mps 761 mmHg 35%
    19:00 +15°C° 0 mm 5 mps 761 mmHg 39%
    20:00 +14°C° 0 mm 5 mps 761 mmHg 43%
    21:00 +14°C° 0 mm 4 mps 762 mmHg 46%
    22:00 +13°C° 0 mm 4 mps 762 mmHg 49%
    23:00 +12°C° 0 mm 4 mps 762 mmHg 51%

    Day after tomorrow, 24 July, Wednesday

    Time Temperature Precipitation Wind Pressure Humidity
    00:00 +12°C° 0 mm 4 mps 762 mmHg 53%
    01:00 +12°C° 0 mm 3 mps 762 mmHg 55%
    02:00 +11°C° 0 mm 3 mps 761 mmHg 57%
    03:00 +12°C° 0 mm 2 mps 761 mmHg 60%
    04:00 +10°C° 0 mm 2 mps 761 mmHg 63%
    05:00 +10°C° 0 mm 2 mps 762 mmHg 65%
    06:00 +9°C° 0 mm 2 mps 763 mmHg 67%
    07:00 +9°C° 0 mm 2 mps 763 mmHg 68%
    08:00 +11°C° 0 mm 3 mps 764 mmHg 61%
    09:00 +13°C° 0 mm 4 mps 764 mmHg 53%
    10:00 +15°C° 0 mm 5 mps 765 mmHg 45%
    11:00 +16°C° 0 mm 5 mps 764 mmHg 38%
    12:00 +17°C° 0 mm 5 mps 764 mmHg 31%
    13:00 +19°C° 0 mm 4 mps 764 mmHg 24%
    14:00 +18°C° 0 mm 4 mps 764 mmHg 33%
    15:00 +16°C° 0 mm 5 mps 764 mmHg 41%
    16:00 +15°C° 0 mm 5 mps 764 mmHg 49%
    17:00 +14°C° 0 mm 4 mps 765 mmHg 57%
    18:00 +13°C° 0 mm 4 mps 766 mmHg 64%
    19:00 +11°C° 0 mm 4 mps 767 mmHg 72%
    20:00 +11°C° 0 mm 3 mps 767 mmHg 70%
    21:00 +10°C° 0 mm 3 mps 768 mmHg 69%
    22:00 +10°C° 0 mm 3 mps 768 mmHg 68%
    23:00 +9°C° 0 mm 3 mps 768 mmHg 67%

    25 July, Thursday

    Time Temperature Precipitation Wind Pressure Humidity
    00:00 +8°C° 0 mm 3 mps 768 mmHg 66%
    01:00 +8°C° 0 mm 3 mps 768 mmHg 65%
    02:00 +7°C° 0 mm 3 mps 768 mmHg 66%
    03:00 +7°C° 0 mm 3 mps 768 mmHg 67%
    04:00 +7°C° 0 mm 3 mps 768 mmHg 69%
    05:00 +5°C° 0 mm 3 mps 768 mmHg 70%
    06:00 +5°C° 0 mm 3 mps 768 mmHg 71%
    07:00 +5°C° 0 mm 3 mps 769 mmHg 72%
    08:00 +8°C° 0 mm 3 mps 769 mmHg 64%
    09:00 +10°C° 0 mm 3 mps 769 mmHg 55%
    10:00 +13°C° 0 mm 2 mps 769 mmHg 47%
    11:00 +15°C° 0 mm 2 mps 768 mmHg 44%
    12:00 +18°C° 0 mm 1 mps 767 mmHg 41%
    13:00 +19°C° 0 mm 1 mps 767 mmHg 39%
    14:00 +18°C° 0 mm 2 mps 766 mmHg 42%
    15:00 +17°C° 0 mm 3 mps 766 mmHg 45%
    16:00 +17°C° 0 mm 3 mps 766 mmHg 48%
    17:00 +14°C° 0 mm 3 mps 766 mmHg 56%
    18:00 +13°C° 0 mm 3 mps 767 mmHg 64%
    19:00 +11°C° 0 mm 3 mps 767 mmHg 73%
    20:00 +11°C° 0 mm 3 mps 767 mmHg 76%
    21:00 +10°C° 0 mm 3 mps 767 mmHg 79%
    22:00 +10°C° 0 mm 3 mps 767 mmHg 82%
    23:00 +9°C° 0 mm 2 mps 767 mmHg 83%

    26 July, Friday

    Time Temperature Precipitation Wind Pressure Humidity
    00:00 +9°C° 0 mm 2 mps 766 mmHg 85%
    01:00 +9°C° 0 mm 2 mps 766 mmHg 87%
    02:00 +8°C° 0 mm 2 mps 766 mmHg 86%
    03:00 +8°C° 0 mm 2 mps 765 mmHg 86%
    04:00 +8°C° 0 mm 2 mps 765 mmHg 86%
    05:00 +8°C° 0 mm 2 mps 765 mmHg 86%
    06:00 +7°C° 0 mm 2 mps 765 mmHg 86%
    07:00 +7°C° 0 mm 2 mps 765 mmHg 86%
    08:00 +9°C° 0 mm 2 mps 765 mmHg 78%
    09:00 +12°C° 0 mm 2 mps 765 mmHg 70%
    10:00 +12°C° 0 mm 3 mps 765 mmHg 62%
    11:00 +15°C° 0 mm 2 mps 764 mmHg 54%
    12:00 +17°C° 0 mm 2 mps 763 mmHg 46%
    13:00 +19°C° 0 mm 2 mps 762 mmHg 38%
    14:00 +19°C° 0 mm 2 mps 762 mmHg 38%
    15:00 +20°C° 0 mm 1 mps 762 mmHg 38%
    16:00 +20°C° 0 mm 1 mps 762 mmHg 38%
    17:00 +17°C° 0 mm 2 mps 763 mmHg 44%
    18:00 +15°C° 0 mm 4 mps 763 mmHg 50%
    19:00 +13°C° 0 mm 5 mps 763 mmHg 56%
    20:00 +12°C° 0 mm 5 mps 764 mmHg 57%
    21:00 +12°C° 0 mm 5 mps 764 mmHg 59%
    22:00 +10°C° 0 mm 5 mps 764 mmHg 61%
    23:00 +10°C° 0 mm 5 mps 764 mmHg 63%

    27 July, Saturday

    Time Temperature Precipitation Wind Pressure Humidity
    00:00 +10°C° 0 mm 4 mps 764 mmHg 66%
    01:00 +10°C° 0 mm 4 mps 764 mmHg 69%
    02:00 +8°C° 0 mm 4 mps 764 mmHg 71%
    03:00 +8°C° 0 mm 4 mps 764 mmHg 72%
    04:00 +8°C° 0 mm 3 mps 764 mmHg 74%
    05:00 +7°C° 0 mm 4 mps 764 mmHg 76%
    06:00 +7°C° 0 mm 4 mps 765 mmHg 77%
    07:00 +6°C° 0 mm 4 mps 765 mmHg 79%
    08:00 +10°C° 0 mm 4 mps 765 mmHg 70%
    09:00 +12°C° 0 mm 4 mps 765 mmHg 61%
    10:00 +14°C° 0 mm 4 mps 765 mmHg 52%
    11:00 +17°C° 0 mm 3 mps 764 mmHg 47%
    12:00 +18°C° 0 mm 3 mps 764 mmHg 43%
    13:00 +19°C° 0 mm 3 mps 763 mmHg 38%
    14:00 +19°C° 0 mm 2 mps 763 mmHg 38%
    15:00 +19°C° 0 mm 2 mps 763 mmHg 38%
    16:00 +19°C° 0 mm 2 mps 763 mmHg 38%
    17:00 +17°C° 0 mm 2 mps 763 mmHg 45%
    18:00 +15°C° 0 mm 1 mps 764 mmHg 52%
    19:00 +14°C° 0 mm 1 mps 764 mmHg 58%
    20:00 +13°C° 0 mm 2 mps 764 mmHg 58%
    21:00 +13°C° 0 mm 2 mps 764 mmHg 58%
    22:00 +11°C° 0 mm 3 mps 764 mmHg 58%
    23:00 +10°C° 0 mm 3 mps 765 mmHg 62%
    Show more